Hourly Data Report for May 02, 2017

FISHER BRANCH (AUT)
MANITOBA

51°05'00.100" N
97°33'16.200" W
253.00 m
50309J6
71442
WSZ

Download Data

Hourly Data (May 2017)
Hourly Data Report for May 2, 2017
TIME
LST
Temp Definition
°C
Dew Point Definition
°C
Rel Hum Definition
%
Precip. Amount Definition
mm

Wind Dir Definition
10's deg

Wind Spd Definition
km/h
Visibility Definition
km
Stn Press Definition
kPa
Hmdx Definition


Wind Chill Definition


Weather Definition


00:00 9.1 1.7 60 0.0 2 8   97.89     LegendNANA
01:00 6.9 1.0 66 0.0 5 8   97.89     LegendNANA
02:00 5.5 0.0 68 0.0 4 7   97.90     LegendNANA
03:00 4.5 -0.5 70 0.0 4 6   97.95     LegendNANA
04:00 3.2 -0.8 75 0.0 5 7   97.99     LegendNANA
05:00 2.2 -0.8 80 0.0 3 5   98.03     LegendNANA
06:00 3.5 -0.2 77 0.0 6 7   98.09     LegendNANA
07:00 6.7 0.7 65 0.0 9 8   98.10     LegendNANA
08:00 8.7 0.6 57 0.0 10 15   98.13     LegendNANA
09:00 10.3 -0.3 48 0.0 12 14   98.12     LegendNANA
10:00 12.7 -0.3 41 0.0 10 11   98.12     LegendNANA
11:00 14.6 -1.0 34 0.0 9 9   98.13     LegendNANA
12:00 15.2 -1.6 31 0.0 13 9   98.11     LegendNANA
13:00 16.3 -0.6 32 0.0 11 9   98.10     LegendNANA
14:00 16.9 -0.5 31 0.0 10 12   98.09     LegendNANA
15:00 16.1 -0.5 32 0.0 12 16   98.08     LegendNANA
16:00 15.8 -0.3 33 0.0 14 18   98.07     LegendNANA
17:00 15.7 -0.3 33 0.0 16 12   98.08     LegendNANA
18:00 14.5 2.0 43 0.0 33 14   98.10     LegendNANA
19:00 12.7 4.8 59 0.0 1 9   98.14     LegendNANA
20:00 11.5 4.3 61 0.0 35 3   98.18     LegendNANA
21:00 11.0 4.6 65 0.0 22 2   98.24     LegendNANA
22:00 8.2 5.4 83 0.0 17 3   98.23     LegendNANA
23:00 8.6 5.3 80 0.0 29 8   98.24     LegendNANA

Notes on Data Quality.

Legend

  • E = Estimated
  • M = Missing
  • NA = Not Available*
  • [empty] = Indicates an unobserved value
Date modified: